FW2418 Weather Reports


time (UTC)temp
F
wind
direction
speed
knots
gust
knots
rain 1hr
in
rain 24hr
in
rain mn
in
humidity
%
barometer
mb
20260901230411 83 61 1.7 4.3 0.00 0.00 0.00 85 1013.3
20260901225339 84 47 1.7 4.3 0.00 0.00 0.00 84 1013.3
20260901224306 84 37 1.7 4.3 0.00 0.00 0.00 84 1013.3
20260901223305 84 43 1.7 4.3 0.00 0.00 0.00 83 1013.3
20260901222306 84 42 1.7 6.1 0.00 0.00 0.00 83 1013.0
20260901221304 85 47 1.7 7.0 0.00 0.00 0.00 81 1013.0
20260901220232 85 60 1.7 7.0 0.00 0.00 0.00 83 1012.7
20260901215231 85 34 1.7 7.0 0.00 0.00 0.00 83 1012.7
20260901214230 85 49 3.5 7.8 0.00 0.00 0.00 81 1012.7
20260901213229 85 52 1.7 6.1 0.00 0.00 0.00 80 1013.0
20260901212228 85 49 1.7 4.3 0.00 0.00 0.00 78 1012.7
20260901211228 86 66 1.7 5.2 0.00 0.00 0.00 77 1013.0
20260901210125 86 46 1.7 7.0 0.00 0.00 0.00 75 1012.7
20260901205052 86 77 1.7 7.8 0.00 0.00 0.00 75 1013.0
20260901204020 86 38 1.7 7.0 0.00 0.00 0.00 76 1013.0
20260901203020 86 33 2.6 5.2 0.00 0.00 0.00 77 1013.0
20260901202019 86 40 1.7 4.3 0.00 0.00 0.00 75 1013.0
20260901201018 87 60 1.7 4.3 0.00 0.00 0.00 75 1013.0
20260901195946 87 67 1.7 4.3 0.00 0.00 0.00 73 1013.0
20260901194945 87 45 0.9 4.3 0.00 0.00 0.00 73 1013.4
20260901193945 87 109 0.9 6.1 0.00 0.00 0.00 73 1013.4
20260901192944 87 84 1.7 6.1 0.00 0.00 0.00 73 1013.4
20260901191943 87 27 1.7 5.2 0.00 0.00 0.00 74 1013.7
20260901190911 87 57 1.7 6.1 0.00 0.00 0.00 73 1013.7
20260901185910 88 48 1.7 4.3 0.00 0.00 0.00 71 1013.7
20260901184838 89 28 1.7 5.2 0.00 0.00 0.00 70 1013.7
20260901183837 89 33 1.7 5.2 0.00 0.00 0.00 71 1013.7
20260901182837 88 117 0.9 5.2 0.00 0.00 0.00 73 1013.7
20260901181836 88 84 1.7 6.1 0.00 0.00 0.00 75 1013.7
20260901180835 87 33 2.6 7.8 0.00 0.00 0.00 75 1014.0
20260901175803 87 80 1.7 8.7 0.00 0.00 0.00 76 1014.0
20260901174802 89 53 2.6 8.7 0.00 0.00 0.00 74 1014.4
20260901173801 90 45 1.7 5.2 0.00 0.00 0.00 72 1014.4
20260901172801 89 68 1.7 4.3 0.00 0.00 0.00 73 1014.4
20260901171800 86 36 1.7 3.5 0.00 0.00 0.00 77 1014.4
20260901170759 85 25 0.9 3.5 0.00 0.00 0.00 82 1014.7
20260901165758 86 319 0.9 5.2 0.00 0.00 0.00 80 1014.7
20260901164757 86 309 0.9 6.1 0.00 0.00 0.00 81 1014.7
20260901163757 88 340 1.7 7.0 0.00 0.00 0.00 76 1014.7
20260901162756 88 62 1.7 6.1 0.00 0.00 0.00 73 1014.7
20260901161755 88 52 0.9 6.1 0.00 0.00 0.00 73 1014.7
20260901160754 89 24 1.7 6.1 0.00 0.00 0.00 72 1015.1
20260901155753 90 16 1.7 6.1 0.00 0.00 0.00 71 1015.1
20260901154752 88 17 2.6 7.0 0.00 0.00 0.00 72 1015.1
20260901153752 88 22 1.7 4.3 0.00 0.00 0.00 72 1015.1
20260901152751 89 54 1.7 5.2 0.00 0.00 0.00 71 1015.1
20260901151750 89 42 1.7 5.2 0.00 0.00 0.00 74 1015.1
20260901150749 87 12 1.7 5.2 0.00 0.00 0.00 77 1015.1
20260901145748 86 20 0.9 5.2 0.00 0.00 0.00 77 1015.1
20260901144747 87 26 1.7 5.2 0.00 0.00 0.00 77 1015.1
20260901143747 87 10 1.7 4.3 0.00 0.00 0.00 79 1015.1
20260901142714 87 24 1.7 3.5 0.00 0.00 0.00 80 1015.1
20260901141713 86 27 1.7 3.5 0.00 0.00 0.00 82 1014.7
20260901140641 85 336 0.9 3.5 0.00 0.00 0.00 82 1014.7
20260901135641 85 331 0.9 4.3 0.00 0.00 0.00 83 1015.1
20260901134640 84 42 1.7 4.3 0.00 0.00 0.00 84 1014.7
20260901133639 84 11 1.7 3.5 0.00 0.00 0.00 84 1014.7
20260901132639 84 64 0.9 3.5 0.00 0.00 0.00 85 1014.7
20260901131638 83 24 1.7 4.3 0.00 0.00 0.00 88 1014.7
20260901130637 81 65 1.7 4.3 0.00 0.00 0.00 91 1014.7
20260901125636 79 43 1.7 1.7 0.00 0.00 0.00 95 1014.7
20260901124635 77 47 0.9 1.7 0.00 0.00 0.00 99 1014.7
20260901123634 76 67 0.9 0.9 0.00 0.00 0.00 99 1014.7
20260901122634 76 34 0.0 0.9 0.00 0.00 0.00 99 1014.7
20260901121633 76 42 0.0 0.9 0.00 0.00 0.00 99 1014.3
20260901120632 75 25 0.0 0.0 0.00 0.00 0.00 99 1014.3
20260901115631 75 25 0.0 0.0 0.00 0.00 0.00 99 1014.3
20260901114630 75 24 0.0 0.0 0.00 0.00 0.00 99 1014.0
20260901113629 75 24 0.0 0.0 0.00 0.00 0.00 99 1014.0
20260901112629 75 25 0.0 0.0 0.00 0.00 0.00 99 1014.0
20260901111628 75 25 0.0 0.0 0.00 0.00 0.00 99 1013.7
20260901110627 75 25 0.0 0.0 0.00 0.00 0.00 99 1013.7
20260901105626 75 24 0.0 0.0 0.00 0.00 0.00 99 1013.3
20260901104452 75 25 0.0 0.0 0.00 0.00 0.00 99 1013.3
20260901103451 75 25 0.0 0.0 0.00 0.00 0.00 99 1013.3
20260901102450 75 24 0.0 0.0 0.00 0.00 0.00 99 1013.3
20260901101449 75 25 0.0 0.0 0.00 0.00 0.00 99 1013.3
20260901100448 75 24 0.0 0.0 0.00 0.00 0.00 99 1013.3
20260901095448 75 25 0.0 0.0 0.00 0.00 0.00 99 1013.3
20260901094447 75 24 0.0 0.0 0.00 0.00 0.00 99 1013.3
20260901093446 75 24 0.0 0.0 0.00 0.00 0.00 99 1013.3
20260901092445 75 24 0.0 0.0 0.00 0.00 0.00 99 1013.3
20260901091444 76 25 0.0 0.0 0.00 0.00 0.00 99 1013.0
20260901090341 76 25 0.0 0.0 0.00 0.00 0.00 99 1013.0
20260901085309 76 24 0.0 0.0 0.00 0.00 0.00 99 1013.0
20260901084308 76 25 0.0 0.0 0.00 0.00 0.00 99 1013.0
20260901083307 76 24 0.0 0.9 0.00 0.00 0.00 99 1013.0
20260901082306 76 25 0.0 0.9 0.00 0.00 0.00 99 1013.0
20260901081234 76 25 0.0 0.0 0.00 0.00 0.00 99 1013.4
20260901080233 76 25 0.0 0.9 0.00 0.00 0.00 99 1013.4
20260901075232 76 24 0.0 0.9 0.00 0.00 0.00 99 1013.4
20260901074232 76 24 0.9 0.9 0.00 0.00 0.00 99 1013.4
20260901073230 76 15 0.9 0.9 0.00 0.00 0.00 99 1013.4
20260901072229 75 15 0.0 0.0 0.00 0.00 0.00 99 1013.3
20260901071229 75 15 0.0 0.0 0.00 0.00 0.00 98 1013.3
20260901070228 75 15 0.0 0.0 0.00 0.00 0.00 98 1013.4
20260901065227 76 15 0.0 0.0 0.00 0.00 0.00 98 1013.7
20260901064226 76 15 0.0 0.9 0.00 0.00 0.00 98 1013.7
20260901063225 76 15 0.0 0.9 0.00 0.00 0.00 98 1013.7
20260901062224 76 15 0.0 0.0 0.00 0.00 0.00 98 1014.0
20260901061223 76 15 0.0 0.0 0.00 0.00 0.00 98 1014.0
20260901060222 76 15 0.0 0.0 0.00 0.00 0.00 98 1014.0
20260901055150 76 14 0.0 0.0 0.00 0.00 0.00 98 1014.4
20260901054149 76 15 0.0 0.0 0.00 0.00 0.00 98 1014.4
20260901053148 77 15 0.0 0.0 0.00 0.00 0.00 98 1014.4
20260901052147 77 15 0.0 0.0 0.00 0.00 0.00 98 1014.4
20260901051147 77 15 0.0 0.0 0.00 0.00 0.00 98 1014.7
20260901050146 77 15 0.0 0.0 0.00 0.00 0.00 97 1014.7
20260901045145 77 15 0.0 0.0 0.00 0.00 0.00 97 1014.7
20260901044144 77 15 0.0 0.0 0.00 0.00 0.00 97 1015.0
20260901043143 78 15 0.0 0.0 0.00 0.00 0.00 97 1015.1
20260901042142 78 15 0.0 0.0 0.00 0.00 0.00 97 1015.1
20260901041110 78 15 0.0 0.9 0.00 0.00 0.00 97 1015.1
20260901040008 78 15 0.9 0.9 0.00 0.00 0.00 97 1015.1
20260901035005 78 15 0.0 0.0 0.00 0.00 0.00 97 1015.1
20260901034004 78 15 0.0 0.0 0.00 0.00 0.00 97 1015.1
20260901032932 78 15 0.0 0.0 0.00 0.00 0.00 96 1015.1
20260901031931 78 15 0.0 0.0 0.00 0.00 0.00 96 1015.1
20260901030930 78 15 0.0 0.0 0.00 0.00 0.00 96 1015.1
20260901025930 79 15 0.0 0.0 0.00 0.00 0.00 96 1015.1
20260901024929 79 15 0.0 0.0 0.00 0.00 0.00 95 1015.1
20260901023857 79 14 0.0 0.0 0.00 0.00 0.00 95 1015.1
20260901022856 79 15 0.0 0.9 0.00 0.00 0.00 95 1015.1
20260901021855 79 15 0.0 0.9 0.00 0.00 0.00 95 1015.1
20260901020854 79 15 0.9 0.9 0.00 0.00 0.00 95 1015.1
20260901015853 79 15 0.9 0.9 0.00 0.00 0.00 95 1015.1
20260901014852 79 15 0.0 0.9 0.00 0.00 0.00 95 1015.1
20260901013852 79 15 0.9 0.9 0.00 0.00 0.00 95 1014.7
20260901012851 79 15 0.0 0.0 0.00 0.00 0.00 95 1014.4
20260901011850 79 15 0.0 0.0 0.00 0.00 0.00 95 1014.4
20260901010849 80 15 0.0 0.0 0.00 0.00 0.00 95 1014.4
20260901005848 80 15 0.0 0.0 0.00 0.00 0.00 95 1014.4
20260901004848 80 15 0.0 0.0 0.00 0.00 0.00 95 1014.0
20260901003847 80 15 0.0 0.0 0.00 0.00 0.00 95 1014.0
20260901002846 80 15 0.0 0.0 0.00 0.00 0.00 95 1014.0
20260901001846 80 15 0.0 0.0 0.00 0.00 0.00 94 1014.0
20260901000845 80 15 0.0 0.0 0.00 0.00 0.00 94 1014.0
20260831235844 80 15 0.0 0.0 0.00 0.00 0.00 94 1014.0
20260831234843 80 15 0.0 0.0 0.00 0.00 0.00 93 1014.0
20260831233843 79 15 0.0 0.0 0.00 0.00 0.00 93 1014.0
20260831232811 79 15 0.0 0.9 0.00 0.00 0.00 93 1014.0
20260831231810 79 15 0.0 0.9 0.00 0.00 0.00 93 1013.7